Location: Rodanthe
(35.5920°N, 75.4670°W)
Time: 08:16:09
(UTC-04:00)

ISS - All Passes

Search period start: 26 July 2016 00:00
Search period end: 05 August 2016 00:00
Orbit: 401 x 404 km, 51.6° (Epoch: 26 July)

Date Brightness Start Highest point End Pass type
(mag) Time Alt. Az. Time Alt. Az. Time Alt. Az.
26 Jul - 04:52:05 10° NW 04:55:17 51° NE 04:58:28 10° ESE visible
26 Jul - 06:30:01 10° WSW 06:31:22 12° SW 06:32:41 10° SSW daylight
26 Jul - 21:29:08 10° SW 21:32:23 85° SE 21:35:39 10° NE visible
26 Jul - 23:07:33 10° WNW 23:09:12 13° NNW 23:10:50 10° N visible
27 Jul - 03:59:27 10° NNW 04:02:15 26° NE 04:05:04 10° E visible
27 Jul - 05:35:53 10° WNW 05:38:37 25° SW 05:41:21 10° S visible
27 Jul - 20:36:31 10° SSW 20:39:31 36° SE 20:42:33 10° ENE visible
27 Jul - 22:13:30 10° W 22:16:02 20° NNW 22:18:34 10° NNE visible
28 Jul - 03:07:00 10° NNW 03:09:09 16° NNE 03:11:17 10° ENE visible
28 Jul - 04:42:37 10° NW 04:45:49 56° SW 04:48:59 10° SE visible
28 Jul - 19:44:32 10° S 19:46:45 17° SE 19:48:59 10° E daylight
28 Jul - 21:19:56 10° WSW 21:22:58 36° NW 21:26:01 10° NNE visible
29 Jul - 02:15:08 10° N 02:15:56 11° NNE 02:16:43 10° NE night (unlit)
29 Jul - 03:49:40 10° NW 03:52:54 63° NE 03:56:07 10° ESE visible
29 Jul - 20:26:44 10° SW 20:29:59 77° NW 20:33:14 10° NE daylight
29 Jul - 22:05:38 10° NW 22:06:53 12° NNW 22:08:08 10° N visible
30 Jul - 02:56:57 10° NNW 02:59:54 31° NE 03:02:50 10° E night (unlit)
30 Jul - 04:33:40 10° W 04:36:11 20° SW 04:38:40 10° S night (unlit)
30 Jul - 19:33:58 10° SSW 19:37:05 46° SE 19:40:13 10° ENE daylight
30 Jul - 21:11:21 10° WNW 21:13:41 18° NNW 21:16:01 10° NNE visible
31 Jul - 02:04:26 10° NNW 02:06:47 18° NNE 02:09:09 10° ENE night (unlit)
31 Jul - 03:40:15 10° WNW 03:43:23 44° SW 03:46:29 10° SSE night (unlit)
31 Jul - 18:41:44 10° S 18:44:17 21° SE 18:46:49 10° ENE daylight
31 Jul - 20:17:38 10° W 20:20:34 30° NW 20:23:30 10° NNE daylight
01 Aug - 01:12:16 10° N 01:13:36 12° NNE 01:14:54 10° NE visible
01 Aug - 02:47:13 10° NW 02:50:29 79° NE 02:53:44 10° SE night (unlit)
01 Aug - 19:24:20 10° WSW 19:27:33 61° NW 19:30:47 10° NE daylight
01 Aug - 21:03:51 10° NW 21:04:32 10° NNW 21:05:13 10° N visible
02 Aug - 01:54:26 10° NNW 01:57:30 37° NE 02:00:32 10° ESE night (unlit)
02 Aug - 03:31:31 10° W 03:33:41 17° SW 03:35:52 10° S night (unlit)
02 Aug - 18:31:26 10° SW 18:34:38 58° SE 18:37:50 10° NE daylight
02 Aug - 20:09:12 10° WNW 20:11:18 16° NNW 20:13:25 10° NNE daylight
03 Aug - 01:01:50 10° NNW 01:04:24 21° NNE 01:06:57 10° E night (unlit)
03 Aug - 02:37:53 10° WNW 02:40:54 35° SW 02:43:54 10° SSE night (unlit)
03 Aug - 17:39:01 10° S 17:41:47 26° SE 17:44:33 10° ENE daylight
03 Aug - 19:15:22 10° W 19:18:09 26° NW 19:20:58 10° NNE daylight
04 Aug - 00:09:32 10° N 00:11:13 13° NNE 00:12:54 10° ENE visible
04 Aug - 01:44:46 10° NW 01:48:01 83° SW 01:51:15 10° SE night (unlit)
04 Aug - 16:47:35 10° SSE 16:49:01 12° SE 16:50:27 10° E daylight
04 Aug - 18:21:56 10° WSW 18:25:06 49° NW 18:28:17 10° NE daylight
